Overview Statistics Trail Chart Weather Telemetry Raw packets
 

This is the latest recevied weather packets stored in our database for station/object OK2ILA-10. If no packets are shown the sender has not sent any weather packets the latest 10 day(s).

<< 52 53 54 55 56 57 58 >>
Time Temp. Humidity Pressure Rain* Wind** Luminosity Snow
1788255115 20.56° C 52% 1021 hPa - - - -
1788255111 20.56° C 52% 1021 hPa - - - -
1788254514 21.11° C 50% 1020.9 hPa - - - -
1788254511 21.11° C 50% 1020.9 hPa - - - -
1788253914 22.78° C 47% 1020.9 hPa - - - -
1788253910 22.78° C 47% 1020.9 hPa - - - -
1788253314 21.11° C 51% 1020.8 hPa - - - -
1788253310 21.11° C 51% 1020.8 hPa - - - -
1788252714 21.11° C 51% 1020.9 hPa - - - -
1788252710 21.11° C 51% 1020.9 hPa - - - -
1788252114 21.67° C 49% 1021 hPa - - - -
1788252110 21.67° C 49% 1021 hPa - - - -
1788251514 25° C 45% 1020.8 hPa - - - -
1788251510 25° C 45% 1020.8 hPa - - - -
1788250913 25° C 44% 1020.7 hPa - - - -
1788250910 25° C 44% 1020.7 hPa - - - -
1788250313 25° C 45% 1020.8 hPa - - - -
1788250309 25° C 45% 1020.8 hPa - - - -
1788249713 25° C 45% 1020.7 hPa - - - -
1788249709 25° C 45% 1020.7 hPa - - - -
1788249113 25.56° C 46% 1020.6 hPa - - - -
1788249109 25.56° C 46% 1020.6 hPa - - - -
1788248509 25° C 46% 1020.3 hPa - - - -
1788247912 24.44° C 47% 1020.1 hPa - - - -
1788247909 24.44° C 47% 1020.1 hPa - - - -

* Rain since midnight (hover to see other rain measurements)
** Current wind speed in m/s (hover to see current wind gust speed)